THOR ABLESTAR DEB, 223

Orbit data source: Space-Track

THOR ABLESTAR DEB, 223 is space debris in LEO originally from a launch on Thu, 29 Jun 1961 UTC launched from the Air Force Eastern Test Range (AFETR). Debris objects in space refer to the collection of defunct objects orbiting the Earth. Examples of debris include non-operational satellites, rocket bodies, and fragments generated from explosions, collisions, or faulty payload assembly.

Loading next visibility...
Identifier
223, 1961-015BK
Orbit
LEO
Country
Flag of USUS
Related business
Manufacturer
Unknown
Mission
Spacecraft
Bus & Motor
Unknown
Mass
Unknown
Launch date (UTC)
1961-06-29 (64 years ago)
Launch vehicle
Unknown
Launch site
Air Force Eastern Test Range (AFETR)
Object type
Payload
Rocket body
Debris
Shape & HBR
Unknown
Radar Cross Section
Medium (>0.1 m² and <1 m²)

Expand to show TLE details & history
Last TLE update: 23 hours ago

TLE from 23 hours ago
0 THOR ABLESTAR DEB
1 00223U 61015BK  25261.03020671 -.00000002  00000-0  60099-4 0  9996
2 00223  66.8884 261.7572 0066171 164.6884 195.6218 13.88971312253079
Epoch: 2025-09-18T00:43Z
TLE epoch observation values (Epoch: 2025-09-18T00:43:29.859Z)
Latitude
-0.00002°
Longitude
-106.31488°
Altitude
980.934 km
Speed
7.338 km/s
True Right ascension
17h 27m 01s
True Declination
0° 00' 00"
Sunlit
Object was in daylight at epoch
Visualization orbit readout
Latitude
Unknown
Longitude
Unknown
Altitude
Unknown
Speed
Unknown
Apparent Right ascension
Unknown
Apparent Declination
Unknown
Sunlit
N/A
Visualization observer readout
Local Sidereal Time
16:36:42
Azimuth
Unknown
Elevation
Unknown
Doppler factor
Unknown
Orbital elements
Apogee altitude
978.986 km
Perigee altitude
882.26 km
Semi-major axis
7,308.76 km
Eccentricity
0.00662
Inclination
66.8884°
RAAN
261.7572°
Arg. of periapsis
164.6884°
True anomaly
195.41922°
Mean anomaly
195.6218°
Eccentric anomaly
195.52035°
Mean motion
3.47358 °/min
Orbital period
103.64 mins
BSTAR
0.000060099
Loading maneuver chart data...
Computing Atmospheric mass density...

Documentation

Showing up to 5 results
|